Wetbulb
45.64 45.83 46.99 47.17 46.82 46.26 42.99 34.70 21.42 42.41 45.59 32.86 32.03 28.78 32.51 36.87 35.11 39.13 37.10 36.72 34.90 32.64 32.85 31.38 31.44 31.21 34.91 39.12 38.41 34.16 36.25 32.02 24.35 29.86 36.56 37.31 35.12 32.41 32.53 24.81 23.32 26.91 27.11 27.83
45.92 45.64 45.53 46.50 46.75 46.38 38.09 32.82 31.06 41.30 42.44 25.17 25.66 31.42 32.63 34.39 33.48 34.33 35.12 34.87 36.47 36.33 32.96 28.70 32.57 33.84 38.87 39.74 37.64 35.12 35.46 29.37 20.49 23.08 31.29 36.50 34.19 33.47 32.77 31.64 29.91 25.91 22.30 25.64
45.74 45.76 45.89 45.80 46.23 46.50 40.44 28.95 21.41 30.94 34.98 33.86 29.23 28.67 28.65 29.41 36.46 34.70 35.51 33.37 35.72 33.52 32.37 34.58 29.82 33.03 37.89 40.03 39.18 40.38 38.30 30.60 24.58 17.89 25.53 30.98 27.95 30.93 32.13 29.52 23.76 23.15 24.08 26.48
45.95 45.87 45.80 45.85 46.48 46.08 41.42 30.95 24.49 31.25 19.98 27.59 30.20 31.14 30.35 28.71 27.99 34.43 36.28 32.68 32.27 30.78 28.03 28.96 29.22 32.75 34.77 37.56 39.95 38.49 33.77 24.43 28.01 28.89 30.31 31.06 29.89 29.01 29.88 27.68 27.69 22.96 25.27 25.75
45.76 45.90 46.09 46.27 45.76 45.93 38.14 31.66 26.29 30.36 27.88 30.69 29.00 29.74 22.19 27.71 29.95 29.42 28.49 28.19 31.55 31.60 25.31 29.28 28.85 31.61 32.13 31.52 35.97 34.95 34.60 25.81 28.98 27.23 30.60 30.50 26.48 29.58 30.15 30.03 29.91 29.20 28.75 27.94
45.12 45.41 45.92 46.12 46.17 45.00 36.44 37.85 36.27 32.44 28.38 26.92 25.49 25.54 27.96 28.89 31.38 31.86 33.98 32.09 26.72 24.41 29.57 33.85 35.33 34.80 34.99 34.81 31.76 32.00 32.23 29.26 25.45 20.35 26.62 24.82 13.25 21.73 27.84 29.41 31.23 29.81 24.69 30.40
44.71 44.86 45.30 45.56 45.93 45.35 39.19 37.28 35.31 30.21 23.36 25.44 26.62 29.56 30.81 29.79 30.60 28.94 33.22 34.22 31.36 36.10 40.32 38.81 35.98 34.60 34.32 34.25 32.68 33.43 26.44 26.13 26.10 18.96 21.59 3.95 24.69 32.04 31.75 28.85 31.10 32.45 31.73 32.62
44.64 44.49 44.23 44.94 45.65 45.98 41.23 39.81 36.17 30.01 23.16 27.45 29.08 30.30 29.72 30.92 31.86 30.55 32.20 34.47 37.54 39.55 36.34 29.09 25.46 23.14 27.69 29.78 32.58 32.34 33.27 26.12 17.73 14.92 17.68 22.15 26.82 27.82 27.87 26.69 26.24 30.53 29.62 31.34
43.84 44.49 44.11 44.82 44.95 45.30 42.32 40.87 41.15 36.29 27.57 24.61 31.45 27.42 28.69 22.96 24.15 26.14 31.41 36.58 39.49 37.22 30.69 25.42 17.84 17.40 22.81 22.36 27.56 33.45 32.61 31.66 23.88 17.80 15.82 12.00 22.15 28.29 32.11 30.85 22.55 30.71 31.50 30.57
44.32 44.18 44.15 44.18 44.52 44.95 42.60 40.70 41.94 35.94 30.90 31.03 32.23 30.23 27.97 32.50 30.44 27.60 32.43 33.63 33.21 35.64 23.85 16.82 16.92 17.85 25.21 19.19 20.70 22.51 23.42 20.07 15.01 14.41 19.21 21.15 27.52 30.85 32.54 22.33 21.00 30.59 32.00 31.44
43.96 43.68 43.60 42.09 43.40 44.32 42.10 40.20 42.81 37.03 32.58 33.20 35.74 36.10 32.14 32.96 32.63 27.77 32.40 29.99 32.15 26.75 18.53 16.62 15.74 14.99 19.25 22.91 25.20 24.04 20.87 19.67 19.78 21.43 16.24 14.18 30.63 31.06 23.10 26.19 31.41 31.94 31.25 31.48
44.26 43.73 43.59 43.09 42.21 42.20 41.62 35.30 42.92 42.01 34.49 31.60 39.54 39.25 39.86 38.99 38.15 33.84 34.14 31.00 31.86 32.88 27.21 24.00 22.70 22.43 26.73 24.89 20.54 29.86 22.10 26.21 20.41 18.99 18.06 28.49 32.76 30.55 34.16 34.43 32.08 31.75 30.73 33.15
44.33 44.18 43.98 43.61 43.46 43.14 42.03 37.34 37.20 37.53 34.33 33.91 32.59 32.91 38.67 42.24 40.49 41.48 28.61 31.66 35.36 33.16 34.92 28.01 26.31 24.27 26.05 21.99 22.56 24.95 29.35 31.61 21.35 23.84 27.64 29.21 32.64 35.16 35.92 35.57 33.74 33.12 33.17 33.92
44.04 44.04 43.96 43.08 43.14 42.91 41.88 37.35 39.30 37.42 35.31 28.11 29.25 39.78 36.98 41.84 40.96 39.56 37.55 34.77 35.84 35.07 34.01 27.75 25.64 23.82 28.67 22.44 24.91 22.01 25.67 28.07 24.98 24.62 29.11 30.92 34.34 34.82 34.53 33.57 34.14 34.59 34.70 35.09
43.66 44.43 44.12 43.66 42.85 43.28 41.31 40.22 38.80 40.21 35.23 27.70 30.16 37.23 39.51 39.82 38.15 37.39 36.61 34.88 32.30 30.10 27.21 24.55 23.62 26.51 24.92 25.17 24.89 22.57 28.07 27.10 20.85 19.17 29.40 29.10 30.90 32.80 34.83 33.62 32.80 35.71 34.23 33.76
43.38 43.16 43.57 42.98 42.55 42.42 39.86 32.73 38.63 39.44 39.79 34.09 26.46 37.23 35.77 37.96 38.14 36.96 36.14 35.09 32.77 31.31 28.66 26.87 28.40 32.19 28.63 21.98 20.33 28.17 30.62 32.38 31.91 28.41 33.47 33.13 33.90 35.33 35.45 33.99 34.09 36.41 35.09 35.92
42.43 42.39 42.02 41.83 42.36 40.91 34.05 33.53 38.34 41.63 40.94 33.38 24.53 28.27 36.40 38.59 37.42 34.38 33.37 34.47 31.81 30.94 29.10 26.92 26.98 27.00 28.06 23.50 21.12 28.89 31.18 32.35 33.12 34.54 34.11 30.87 32.94 31.74 35.63 36.08 35.50 37.09 36.38 36.90
43.61 43.28 43.06 42.98 42.70 41.03 37.04 39.05 41.04 41.85 37.19 34.58 22.55 24.68 29.65 35.98 28.16 27.01 33.98 31.52 31.51 30.70 28.62 27.88 25.61 26.78 25.86 21.15 27.78 30.11 31.56 32.33 32.84 33.75 35.19 34.77 34.92 35.08 34.89 36.42 34.25 33.17 34.36 35.81
44.10 42.85 42.83 39.21 36.78 30.75 35.02 41.93 42.12 40.45 35.07 22.85 25.12 21.73 19.18 34.12 30.81 28.72 28.56 29.66 21.28 28.70 24.25 25.72 26.55 23.94 23.12 27.36 27.79 29.01 30.43 30.55 31.40 33.89 35.69 34.96 33.71 33.72 34.57 35.14 34.97 33.14 34.22 35.54
44.42 38.33 35.78 25.34 35.86 40.84 40.90 36.84 31.53 31.12 33.09 30.14 25.61 28.79 24.56 31.46 28.40 25.50 23.12 24.24 21.89 20.31 24.48 27.16 23.21 24.14 28.99 30.19 30.36 31.84 31.63 32.27 32.69 32.14 31.72 32.83 32.91 33.97 34.39 34.88 36.30 36.62 35.29 35.74
36.19 31.14 32.33 37.16 41.01 34.49 30.18 21.65 21.06 24.27 23.72 28.13 28.75 28.21 25.34 32.13 23.13 22.03 24.22 19.90 23.46 17.88 25.83 23.65 23.21 24.10 28.49 30.39 28.62 32.90 32.86 32.63 32.80 34.33 34.99 35.18 34.92 35.05 35.17 35.43 35.27 35.54 35.29 36.59
35.60 35.85 37.59 35.85 32.23 26.18 24.29 19.40 25.00 23.06 23.91 29.27 25.11 27.13 28.18 28.63 28.65 22.44 23.55 23.02 24.21 19.03 25.31 20.51 21.34 26.10 28.10 29.39 28.28 31.65 31.96 31.75 31.98 33.02 33.03 32.99 32.35 32.43 32.34 32.66 33.14 33.03 32.44 31.12
37.45 35.60 30.31 27.89 24.87 13.61 17.47 11.20 20.64 17.19 25.33 26.47 26.79 24.18 26.84 28.83 27.54 22.80 23.62 17.89 15.60 25.78 18.49 17.74 26.23 28.63 29.40 28.58 29.08 30.47 31.90 32.49 32.51 31.76 31.55 31.27 30.67 30.86 30.65 30.93 31.96 31.50 30.92 29.69
28.49 25.29 15.22 19.61 15.82 22.07 23.16 23.70 24.39 27.72 27.71 27.21 27.27 24.17 23.34 27.89 24.35 23.41 17.87 23.61 24.81 15.63 11.89 21.13 26.39 27.81 27.45 29.39 30.10 29.89 29.43 30.50 31.31 31.94 32.37 30.48 29.68 30.21 30.80 30.77 31.19 30.50 30.05 30.05
26.59 26.03 14.26 19.72 26.00 27.66 27.94 28.89 27.60 29.10 30.18 28.74 25.15 25.72 26.36 24.40 24.48 25.81 23.17 20.19 15.12 17.88 19.38 25.89 29.10 29.21 29.07 27.94 28.77 28.78 29.80 29.43 30.25 31.70 31.27 31.67 31.52 30.62 30.26 31.01 31.19 30.97 29.81 29.54
28.26 26.70 22.93 25.69 23.88 23.27 25.22 28.14 27.49 31.05 27.22 28.67 28.11 23.20 17.83 21.63 24.52 22.21 17.48 20.67 15.49 23.50 27.57 29.25 29.87 28.54 28.18 27.69 28.59 28.85 30.00 30.26 30.69 31.58 31.88 31.29 31.10 31.21 31.00 31.39 31.21 30.84 30.03 29.11
27.14 22.60 27.14 25.44 25.25 24.18 25.99 28.47 28.94 32.99 28.16 26.92 28.75 22.21 18.13 25.03 23.72 19.54 22.60 18.20 22.95 28.21 29.57 30.34 30.43 29.66 27.04 27.49 28.24 26.01 28.35 30.04 30.64 31.22 32.00 32.59 32.21 32.00 32.28 30.65 31.00 31.60 31.21 30.18
MSLP
1009.22 1009.14 1008.93 1008.92 1009.22 1009.49 1009.56 1009.46 1008.50 1006.87 1006.58 1008.33 1007.80 1007.43 1006.69 1005.72 1004.92 1004.40 1004.45 1004.53 1004.55 1004.46 1004.80 1004.62 1004.76 1004.62 1004.02 1004.14 1004.69 1005.24 1005.14 1005.16 1004.29 1002.01 1001.35 1001.58 1002.64 1003.19 1003.78 1001.94 1003.20 1002.74 1000.94 998.68
1008.63 1008.56 1008.53 1008.55 1008.68 1008.94 1009.20 1009.00 1008.08 1006.86 1007.01 1007.56 1007.41 1006.94 1006.17 1005.56 1004.90 1004.27 1004.32 1004.59 1004.85 1004.94 1004.85 1004.82 1004.10 1003.86 1003.20 1003.82 1004.19 1004.59 1004.98 1004.87 1004.76 1002.88 1002.16 1002.90 1003.04 1003.62 1003.64 1003.55 1003.52 1003.42 1002.51 1000.59
1007.84 1007.82 1007.86 1008.02 1008.16 1008.36 1009.16 1009.06 1008.22 1007.09 1006.96 1006.86 1006.90 1006.53 1005.87 1004.98 1004.28 1003.85 1003.72 1003.64 1003.99 1004.68 1004.78 1004.69 1004.25 1003.33 1002.52 1002.91 1003.36 1003.86 1004.42 1004.44 1004.06 1004.00 1002.82 1002.97 1003.20 1003.02 1003.23 1004.13 1003.98 1003.49 1003.02 1000.83
1006.91 1006.98 1007.10 1007.22 1007.43 1007.82 1008.67 1008.58 1007.77 1006.65 1006.68 1007.00 1006.76 1006.55 1005.79 1004.80 1004.10 1003.56 1003.38 1003.41 1003.83 1004.33 1004.70 1004.65 1003.97 1003.59 1003.01 1002.53 1002.32 1003.35 1004.24 1004.31 1004.24 1003.72 1003.25 1002.80 1002.65 1002.48 1002.60 1003.04 1001.74 1001.81 999.71 999.03
1006.03 1005.95 1005.96 1006.19 1006.55 1007.08 1007.99 1007.64 1007.38 1006.85 1006.65 1006.46 1006.38 1006.08 1005.55 1005.10 1004.44 1004.29 1003.62 1003.65 1003.89 1004.10 1004.33 1004.34 1004.32 1004.32 1003.82 1002.99 1001.94 1003.26 1003.86 1003.40 1003.68 1003.70 1003.35 1002.85 1002.19 1001.71 1001.65 1000.88 1000.04 1000.04 999.61 998.22
1005.19 1004.91 1004.80 1005.05 1005.44 1006.18 1006.69 1006.93 1006.91 1007.27 1006.65 1006.51 1006.37 1005.67 1005.18 1004.61 1004.50 1004.04 1003.65 1003.62 1003.67 1003.71 1003.69 1003.72 1003.89 1004.16 1004.12 1003.86 1004.00 1003.00 1003.67 1003.52 1003.97 1003.72 1003.27 1002.62 1001.70 1001.00 999.91 999.64 999.63 999.23 999.20 998.37
1004.36 1003.92 1003.65 1003.79 1004.19 1004.76 1005.59 1005.98 1006.46 1006.99 1006.43 1006.63 1006.04 1005.40 1004.92 1004.40 1004.22 1004.04 1003.77 1003.65 1003.35 1003.14 1003.11 1003.50 1003.81 1003.70 1003.24 1002.86 1003.11 1003.33 1003.16 1003.08 1003.85 1003.86 1003.62 1002.88 1000.38 999.58 999.84 1000.25 999.89 1000.03 999.81 999.57
1003.48 1003.12 1002.83 1002.61 1002.84 1003.48 1004.60 1005.29 1005.68 1006.16 1006.22 1006.02 1005.38 1005.32 1005.10 1004.32 1004.03 1003.79 1003.39 1002.90 1002.56 1002.94 1003.63 1004.03 1004.00 1003.46 1002.87 1001.76 1001.46 1001.36 1001.76 1002.71 1003.71 1003.94 1003.29 1002.22 1001.03 1001.02 1001.10 1001.04 1000.56 1000.97 1000.58 1000.07
1002.84 1002.20 1001.74 1001.50 1001.69 1002.33 1003.57 1004.33 1005.02 1005.62 1005.85 1004.90 1004.75 1004.62 1004.37 1004.38 1004.20 1003.69 1002.90 1002.18 1002.46 1002.89 1003.46 1004.20 1004.34 1003.71 1002.45 1001.67 1000.41 1000.19 1000.86 1001.57 1003.37 1003.94 1003.60 1003.08 1003.00 1002.15 1001.39 1001.21 1001.16 1001.43 1001.06 1000.56
1002.39 1001.86 1001.38 1001.16 1001.24 1001.73 1002.84 1003.44 1004.45 1005.20 1004.92 1004.12 1004.11 1004.24 1004.01 1004.00 1003.98 1003.69 1002.90 1002.11 1002.20 1002.45 1003.62 1004.68 1004.70 1004.14 1003.03 1002.36 1001.57 1001.16 1001.14 1001.98 1002.94 1003.38 1003.44 1003.23 1003.26 1001.86 1000.83 1001.09 1001.47 1000.74 1000.70 1000.28
1002.44 1002.00 1001.66 1001.41 1001.33 1001.68 1002.66 1003.34 1003.81 1004.69 1004.82 1004.12 1003.79 1003.38 1003.28 1003.10 1003.60 1003.61 1002.42 1002.56 1002.76 1003.19 1004.10 1004.92 1004.56 1004.28 1003.40 1002.78 1001.88 1001.50 1001.73 1002.12 1002.79 1003.34 1003.22 1002.67 1001.86 1001.44 1001.12 1001.28 1000.86 1000.55 1000.18 999.94
1002.80 1002.46 1002.15 1002.00 1001.95 1002.00 1002.84 1003.73 1003.52 1004.26 1004.64 1004.30 1003.42 1002.76 1002.26 1002.12 1002.40 1003.03 1002.52 1003.00 1003.10 1003.48 1003.92 1004.76 1004.50 1004.21 1003.68 1002.90 1002.03 1001.36 1001.76 1001.68 1001.87 1002.28 1001.88 1000.87 1000.82 1000.57 1000.36 1000.24 1000.35 1000.05 999.89 999.53
1003.07 1002.78 1002.51 1002.33 1002.40 1002.73 1003.10 1003.60 1003.86 1004.21 1004.55 1004.26 1003.35 1002.10 1001.30 1001.23 1001.46 1001.67 1002.35 1002.50 1002.67 1002.87 1002.96 1003.63 1004.02 1003.91 1003.08 1002.41 1002.17 1001.28 1000.79 1000.57 1001.12 1001.22 1000.71 1000.22 1000.21 1000.03 999.79 999.37 999.27 999.25 999.21 999.18
1003.44 1003.12 1002.96 1003.06 1003.05 1003.18 1003.37 1003.65 1003.96 1004.11 1004.36 1003.91 1002.16 1000.86 1000.58 1000.32 1000.64 1001.05 1001.47 1002.11 1002.48 1002.76 1003.00 1003.51 1003.70 1003.44 1002.22 1002.06 1001.59 1001.35 1000.77 1000.46 1000.90 1000.85 1000.28 999.77 999.72 999.15 998.62 998.38 998.27 998.57 998.63 998.57
1004.05 1003.59 1003.56 1003.66 1003.68 1003.56 1003.59 1003.69 1003.81 1003.81 1004.20 1003.86 1002.55 1000.90 1000.25 1000.17 1000.55 1000.91 1001.32 1001.86 1002.38 1002.89 1003.20 1003.29 1003.23 1002.62 1002.23 1001.81 1001.45 1001.14 1000.58 1000.71 1000.94 1000.53 1000.12 999.85 999.30 998.31 997.74 997.58 997.56 997.95 998.14 998.18
1004.96 1004.70 1004.50 1004.30 1004.11 1003.95 1003.80 1003.74 1003.82 1003.81 1003.73 1003.66 1002.77 1000.83 1000.32 1000.42 1000.64 1000.91 1001.20 1001.55 1002.07 1002.69 1002.98 1003.00 1002.48 1001.64 1002.04 1002.20 1001.78 1001.16 1001.16 1000.73 1000.69 1000.56 1000.07 999.69 999.01 998.08 997.40 997.08 996.77 997.27 997.52 997.76
1005.35 1005.09 1004.80 1004.48 1004.27 1004.20 1004.06 1004.08 1003.91 1003.71 1003.76 1003.78 1003.00 1001.48 1000.80 1000.25 1000.56 1000.90 1001.17 1001.26 1001.79 1002.26 1002.55 1002.55 1002.18 1001.74 1001.66 1002.01 1002.18 1001.91 1001.38 1000.99 1000.52 1000.10 999.81 999.14 998.64 998.28 997.54 997.10 996.42 996.53 997.12 997.28
1004.98 1004.72 1004.52 1004.28 1004.02 1004.06 1003.89 1003.71 1003.54 1003.50 1003.53 1003.32 1003.17 1002.17 1001.80 1001.57 1001.40 1001.80 1001.26 1001.73 1001.80 1002.02 1002.12 1002.00 1001.91 1001.60 1001.62 1002.10 1002.50 1002.21 1001.88 1001.38 1000.80 1000.46 1000.03 999.43 998.74 998.03 997.21 996.80 996.31 996.20 996.74 996.99
1004.50 1004.29 1004.10 1004.16 1003.89 1004.02 1003.62 1003.39 1003.28 1003.28 1003.81 1003.51 1003.23 1002.72 1002.70 1002.80 1001.98 1001.70 1002.21 1002.13 1002.57 1001.93 1001.97 1001.85 1001.72 1001.88 1002.30 1002.82 1002.86 1002.55 1002.20 1001.72 1001.07 1000.12 999.33 998.49 997.86 997.55 997.05 996.77 996.37 996.26 996.38 996.67
1003.91 1004.14 1004.13 1004.22 1003.84 1003.49 1003.43 1003.29 1003.48 1003.38 1003.11 1003.25 1003.04 1002.27 1002.55 1003.00 1002.28 1002.79 1002.91 1002.82 1002.93 1002.51 1002.02 1001.35 1001.63 1002.51 1002.73 1003.04 1003.05 1002.66 1002.20 1001.74 1001.17 1000.44 999.40 998.42 997.93 997.44 997.25 997.13 996.94 996.80 996.55 996.56
1004.63 1004.68 1004.54 1003.88 1003.48 1003.69 1003.70 1003.98 1004.22 1003.54 1003.17 1002.73 1002.08 1001.72 1001.94 1002.05 1002.54 1003.22 1003.07 1003.27 1002.98 1002.76 1002.21 1001.87 1001.84 1002.46 1002.62 1002.84 1002.70 1002.42 1002.32 1001.98 1001.51 1000.91 1000.14 999.70 999.16 998.68 998.29 998.01 997.93 997.82 997.96 997.26
1006.00 1005.88 1005.16 1004.21 1004.00 1004.16 1004.37 1004.17 1003.77 1003.46 1003.01 1002.94 1001.96 1001.64 1001.74 1002.24 1002.31 1003.04 1003.19 1003.30 1002.98 1002.41 1001.81 1001.99 1002.08 1002.36 1002.52 1002.64 1002.66 1002.52 1002.40 1002.13 1001.74 1001.39 1000.88 1000.54 1000.28 999.93 999.56 999.36 999.15 999.18 999.14 999.15
1004.82 1005.30 1005.04 1004.68 1004.52 1004.78 1004.39 1004.22 1003.63 1003.41 1002.81 1002.53 1002.39 1002.38 1002.31 1002.33 1002.51 1003.22 1003.46 1003.30 1002.82 1002.00 1001.92 1001.82 1001.93 1002.25 1002.44 1002.74 1002.72 1002.64 1002.54 1002.36 1002.10 1001.82 1001.65 1001.39 1001.12 1000.86 1000.53 1000.16 1000.00 999.88 1000.04 1000.20
1005.11 1004.95 1005.14 1004.89 1004.52 1004.43 1003.82 1003.79 1003.57 1003.19 1003.00 1002.86 1002.83 1002.76 1002.77 1002.53 1002.83 1003.07 1003.48 1002.70 1002.38 1002.12 1001.91 1001.63 1002.00 1002.33 1002.64 1002.79 1002.77 1002.78 1002.69 1002.47 1002.26 1002.14 1001.95 1001.77 1001.66 1001.44 1001.19 1000.94 1000.68 1000.65 1000.76 1000.92
1005.06 1004.77 1004.80 1004.46 1004.20 1004.00 1003.76 1003.47 1003.37 1003.14 1002.82 1002.94 1002.97 1002.86 1002.80 1002.75 1003.02 1002.91 1002.75 1002.38 1002.00 1001.42 1001.38 1001.82 1001.94 1002.24 1002.66 1002.94 1003.01 1002.91 1002.77 1002.56 1002.35 1002.16 1002.06 1001.93 1001.79 1001.72 1001.68 1001.54 1001.32 1001.26 1001.33 1001.34
1004.74 1004.55 1004.43 1004.37 1004.42 1004.18 1003.87 1003.65 1003.42 1002.98 1002.85 1002.79 1002.92 1002.90 1002.95 1002.53 1002.44 1002.26 1002.04 1001.61 1001.20 1001.34 1001.54 1001.74 1001.87 1002.30 1002.71 1003.01 1003.05 1002.97 1002.76 1002.56 1002.42 1002.22 1002.10 1002.02 1001.96 1001.92 1001.94 1001.91 1001.86 1001.86 1001.81 1001.82
1004.46 1004.23 1004.04 1004.47 1004.42 1004.17 1003.81 1003.50 1003.27 1002.80 1002.95 1002.88 1002.68 1002.59 1002.21 1001.67 1001.65 1001.52 1000.82 1000.95 1001.08 1001.18 1001.59 1001.71 1001.95 1002.40 1002.85 1002.97 1002.98 1002.92 1002.80 1002.66 1002.55 1002.34 1002.10 1002.09 1002.00 1001.83 1001.92 1002.00 1002.16 1002.22 1002.26 1002.32
Wind_Speed
16 14 13 13 10 7 2 3 1 3 7 4 2 3 4 6 13 7 8 6 6 8 5 3 6 9 9 11 9 5 4 3 6 3 5 6 9 4 4 5 4 4 2 5
17 16 15 13 11 11 1 3 4 4 4 5 5 4 9 11 13 14 5 4 5 1 3 5 9 9 11 13 12 8 8 3 2 8 2 3 4 5 3 2 4 4 1 9
19 18 16 15 13 13 4 2 2 3 3 5 4 6 8 10 8 13 15 12 10 5 6 7 5 5 4 15 13 13 9 3 7 8 7 1 2 1 4 6 4 7 14 22
20 20 19 19 16 14 5 3 5 4 3 6 8 9 8 13 12 11 11 10 10 9 6 8 17 15 16 16 16 10 9 7 8 14 13 10 10 9 6 13 14 8 15 15
19 21 21 20 20 16 6 3 3 3 4 7 8 10 5 14 12 6 13 7 8 4 2 3 6 8 4 5 6 12 8 4 5 9 11 13 13 12 16 18 17 16 17 22
18 21 21 22 22 19 5 4 4 1 4 3 4 7 9 9 9 10 12 10 3 3 7 7 6 8 5 5 7 4 4 3 3 4 6 7 7 10 16 16 16 17 17 20
20 20 19 20 24 23 6 4 3 3 6 4 8 12 13 13 9 10 11 11 9 2 4 0 4 10 12 11 11 10 5 4 3 4 2 1 9 8 5 7 10 11 11 13
20 18 20 19 23 26 9 5 4 3 6 8 11 9 15 8 8 7 7 10 9 7 6 1 4 4 4 9 16 14 15 4 3 3 5 9 12 8 6 7 8 11 12 16
17 19 15 15 18 24 12 8 5 2 2 8 9 10 3 2 3 5 6 7 8 4 3 2 4 4 2 4 4 11 14 9 6 2 4 7 5 12 12 8 7 9 12 15
15 13 11 6 10 17 7 3 12 3 3 2 4 2 4 3 3 4 3 6 5 5 3 2 3 5 3 5 9 9 2 2 5 3 4 2 2 12 11 6 5 8 8 12
12 8 9 4 1 11 9 2 9 7 2 3 6 9 5 3 3 3 4 3 3 2 3 3 4 0 3 1 3 3 3 2 2 1 4 4 11 6 4 6 6 8 6 8
13 10 7 4 6 2 8 1 3 7 1 4 3 10 8 6 5 4 3 4 2 2 2 2 2 1 2 5 3 2 1 4 4 7 6 7 6 6 6 6 8 5 5 8
12 10 9 5 8 12 5 2 2 3 1 4 2 9 10 9 7 8 1 1 1 0 3 4 3 3 3 1 0 3 3 1 2 2 5 7 7 6 7 7 8 6 2 4
13 9 8 11 8 7 4 2 2 3 2 2 6 5 5 5 7 6 4 3 1 1 1 1 2 2 2 2 4 2 5 2 2 3 6 7 6 9 8 6 7 5 1 5
19 12 11 9 5 6 4 2 2 2 1 1 5 5 5 5 3 5 6 4 3 1 2 1 3 3 1 4 1 3 2 2 1 6 6 5 7 7 6 5 6 6 3 5
15 14 12 7 6 8 2 2 1 3 1 2 3 4 4 5 7 6 6 5 3 3 3 3 3 4 2 2 2 2 8 9 6 4 10 9 10 11 6 8 3 7 7 2
11 10 8 7 6 3 1 0 2 4 1 2 4 1 5 8 5 2 1 1 3 4 2 2 3 4 1 2 2 8 9 11 13 12 12 9 8 8 16 13 4 10 8 5
11 12 12 13 11 4 1 1 2 5 2 1 1 3 3 9 2 1 2 0 1 1 4 2 2 4 1 1 7 8 9 12 10 12 14 13 14 16 13 12 7 2 5 7
11 7 8 4 1 2 2 4 8 3 2 1 1 1 1 3 4 0 4 2 2 3 1 3 2 2 2 4 6 8 9 10 14 16 18 14 9 10 11 9 6 3 3 4
6 1 0 3 2 3 7 2 3 3 2 2 3 2 2 3 1 2 3 1 2 1 5 0 2 2 1 2 2 5 9 11 12 13 17 12 8 6 5 7 7 10 5 4
5 4 2 3 2 1 1 2 1 2 2 2 5 4 3 2 3 1 2 3 2 1 3 1 2 3 1 2 2 4 7 9 11 13 9 12 12 11 8 9 9 11 11 2
5 5 6 3 2 2 1 3 3 1 1 3 1 2 3 0 2 3 2 1 1 4 2 2 1 2 2 3 2 5 7 10 12 13 12 12 13 12 11 9 9 8 7 6
2 3 3 1 2 4 2 2 4 3 4 3 4 3 1 2 3 1 1 1 5 1 1 3 2 4 4 5 3 4 6 7 9 11 11 11 10 9 9 8 6 5 6 4
2 2 4 4 3 3 2 2 0 3 3 4 2 2 2 1 2 2 1 5 1 2 2 2 3 5 5 4 3 4 4 5 6 7 7 7 8 5 5 6 4 3 5 4
3 1 3 3 3 3 1 2 2 4 2 3 3 3 1 1 1 3 3 2 4 5 1 3 2 7 6 4 4 4 3 3 4 5 5 5 5 5 5 5 5 5 5 6
3 4 2 4 3 4 3 2 3 3 2 1 1 2 1 4 3 3 6 3 5 2 3 2 5 6 5 3 2 1 4 3 4 4 4 4 3 3 2 3 4 4 4 5
3 4 0 1 2 4 3 1 3 3 2 2 2 2 8 2 2 3 3 1 1 5 3 2 5 5 4 0 0 3 3 4 5 6 5 3 4 3 2 1 2 2 2 2
Wind_Direction
280 285 282 263 246 247 249 263 305 216 106 184 184 222 200 258 263 269 209 267 236 219 227 243 220 222 221 159 169 214 190 207 255 322 295 261 244 175 270 96 12 293 276 267
276 276 271 271 245 209 288 240 228 224 163 205 215 247 239 238 250 254 177 218 230 341 254 233 215 197 242 171 176 187 174 187 324 319 140 104 177 177 135 97 164 191 27 277
272 266 263 257 251 225 170 328 295 243 157 241 252 234 242 247 249 258 257 259 226 213 265 246 276 270 223 188 203 191 189 199 183 208 230 33 252 182 186 168 193 192 220 257
269 262 257 249 240 229 185 191 243 244 230 240 233 249 277 283 285 279 275 265 285 239 251 272 258 258 260 264 233 186 182 210 219 250 269 272 265 264 265 243 242 238 280 264
278 268 255 243 236 222 209 204 166 270 267 277 269 240 235 251 271 250 286 275 262 312 195 236 293 314 308 272 277 172 238 234 215 237 247 252 251 254 245 248 261 262 265 270
296 278 260 244 230 208 199 200 293 65 240 266 261 255 261 270 271 269 265 283 201 236 233 242 229 211 195 249 304 233 211 194 184 236 249 300 313 220 247 260 263 264 262 270
293 296 273 248 230 212 198 171 148 207 250 243 254 266 268 272 267 270 258 272 260 234 39 14 278 233 230 216 239 253 221 174 164 263 24 255 260 230 315 333 286 2 353 340
298 290 282 263 229 217 204 194 188 168 242 244 262 278 268 301 322 310 283 274 275 146 175 230 262 265 242 239 235 225 228 202 224 183 233 280 303 25 0 337 314 17 343 338
319 304 286 257 232 216 200 198 182 199 148 236 253 270 250 216 256 290 223 267 255 190 176 132 211 235 307 284 261 216 236 233 190 296 250 259 14 331 312 291 248 6 347 339
327 339 332 287 234 212 186 169 186 151 234 274 251 216 279 186 305 270 294 283 226 165 135 159 201 246 246 262 268 268 294 59 160 225 267 129 268 286 293 257 287 319 327 317
5 0 351 346 84 184 174 146 182 182 226 291 294 273 216 214 177 298 292 96 342 38 94 132 247 125 253 349 282 247 139 87 84 198 228 276 206 278 109 225 277 274 309 315
16 20 31 54 67 185 117 42 167 183 175 249 284 285 272 261 172 156 295 132 350 86 85 91 236 215 347 245 26 292 96 213 186 154 217 230 182 201 222 228 255 273 282 316
3 10 27 64 115 126 126 108 104 93 28 284 225 246 240 230 200 201 121 30 53 122 165 173 219 235 170 22 296 260 295 29 169 76 262 247 182 221 232 235 230 216 282 329
12 19 78 107 97 110 113 107 132 116 191 247 276 312 196 235 183 194 177 176 132 186 32 155 201 219 219 262 240 162 219 351 54 303 308 338 209 213 218 231 259 168 125 350
29 36 90 104 70 27 65 117 196 278 110 308 285 276 218 163 166 207 209 187 185 121 336 135 238 236 36 289 348 284 308 351 114 235 276 275 273 256 237 248 267 165 119 354
39 38 42 39 31 3 311 33 182 293 247 287 311 282 126 170 194 214 220 192 194 157 172 230 253 251 113 203 260 332 18 351 356 303 316 310 307 320 288 262 258 170 150 147
341 345 343 331 312 296 8 315 271 301 180 250 304 327 318 191 185 219 206 221 198 156 221 226 215 268 76 164 226 359 353 347 330 317 333 317 313 298 315 318 295 159 174 174
304 298 307 311 300 265 261 201 329 332 235 256 300 286 356 13 321 304 198 102 15 277 203 280 245 317 39 9 5 353 355 341 324 325 316 287 281 282 280 294 278 237 201 180
320 308 299 306 14 15 295 287 303 244 181 195 295 251 278 352 272 187 15 75 15 260 226 222 121 246 88 3 334 339 338 343 328 327 325 297 279 273 271 287 297 271 173 158
347 354 158 342 287 297 321 48 13 353 245 226 227 215 142 213 288 324 61 40 237 308 244 41 140 88 128 52 308 324 357 343 335 335 352 338 338 339 12 356 357 353 259 226
4 354 332 264 73 335 286 287 101 251 276 239 238 192 174 315 92 190 164 221 236 279 267 172 220 115 190 162 342 9 3 355 352 339 357 21 23 14 9 13 34 25 346 51
280 281 281 285 348 326 287 249 298 244 236 253 340 221 130 199 107 83 312 238 350 254 159 86 173 192 156 134 36 22 8 1 0 3 7 16 21 9 3 9 14 32 29 8
259 187 244 123 263 7 187 247 302 334 351 352 13 347 136 31 49 43 79 213 235 6 56 213 128 147 122 92 53 17 11 3 2 17 19 18 24 23 7 353 12 40 55 18
229 186 290 171 248 255 249 70 205 263 15 352 356 299 141 230 63 189 153 242 5 283 205 195 139 140 116 109 63 39 359 348 346 6 8 15 21 11 23 3 2 53 84 61
279 295 248 239 255 347 356 348 17 316 319 8 350 319 126 267 211 219 236 260 242 209 156 103 126 120 113 93 78 50 7 329 345 344 0 0 4 21 23 20 23 47 60 70
242 243 294 293 357 305 353 318 285 297 285 353 139 257 352 230 208 195 220 242 216 114 111 177 117 107 104 100 91 25 27 18 351 345 348 351 357 12 46 27 26 41 59 81
242 266 268 195 248 229 245 237 278 302 4 292 324 249 224 258 256 252 215 228 173 130 142 107 99 119 124 71 185 299 41 25 8 348 346 350 337 330 190 144 108 64 62 62